Theta_e
304 304 305 307 307 307 307 307 308 309 309 310 310 310 311 312 312 315 316 319 320 321 321 322 325 325 325 326 326 326 325 327 323 322 322 324 326 326 326 324 324 324 322 321 319 317 315 314 313 311 308 308
302 301 302 303 304 305 305 305 305 306 307 308 307 308 307 307 307 309 312 314 316 317 317 318 322 324 323 323 324 325 325 326 325 324 322 322 324 325 325 324 324 323 322 321 319 316 315 313 313 312 310 308
295 299 299 301 302 303 303 303 304 304 304 304 305 305 305 305 304 305 307 309 312 314 315 315 316 321 324 324 324 324 324 325 326 324 325 322 322 323 325 325 324 324 323 321 318 316 315 313 312 313 310 309
293 297 297 298 299 300 301 301 302 302 302 302 302 302 302 302 300 301 302 306 305 310 311 311 313 317 320 321 322 322 321 323 324 324 324 324 322 323 325 325 323 322 322 322 317 314 314 312 312 311 307 308
292 293 295 295 296 298 299 299 300 300 300 300 299 299 300 299 299 299 299 301 302 305 305 308 310 314 316 317 317 317 317 318 321 323 322 323 322 323 322 325 322 321 322 321 316 312 312 312 309 306 305 307
292 292 293 291 291 293 294 296 297 296 296 297 296 298 296 296 297 297 298 299 301 301 303 304 307 309 312 314 314 315 314 314 317 319 320 320 320 320 319 321 324 322 321 319 314 312 311 309 303 303 304 305
291 290 291 291 291 291 294 293 293 293 295 295 295 296 295 296 296 297 297 297 299 300 301 302 305 306 309 311 312 311 311 312 314 315 316 315 316 316 316 322 322 322 323 319 314 311 308 298 297 299 302 304
290 290 290 290 291 290 291 291 291 292 293 294 294 295 295 295 296 296 296 297 298 299 298 300 302 304 305 306 307 308 307 308 310 311 311 311 311 310 312 316 318 319 320 318 314 308 301 294 293 296 300 303
290 290 289 290 290 289 291 290 290 291 292 293 293 294 294 295 295 295 295 295 295 295 296 298 299 301 302 304 305 306 305 306 306 306 306 306 306 306 308 312 312 317 317 317 311 306 298 292 291 293 298 300
289 289 288 289 290 289 291 290 289 290 291 291 292 293 293 294 293 293 293 294 294 295 296 296 297 298 301 302 303 305 305 304 304 304 303 303 303 303 303 306 310 312 316 313 309 303 295 291 291 291 295 297
288 288 288 289 290 289 291 289 289 289 291 291 291 292 293 293 292 292 292 293 294 294 296 296 296 297 298 299 300 302 302 302 302 303 303 302 301 302 302 302 304 309 311 311 308 302 296 293 290 290 293 295
287 288 288 289 289 288 291 288 288 289 290 291 291 292 292 292 292 291 291 291 292 295 295 296 297 297 297 298 299 300 300 300 301 301 301 302 301 301 301 301 301 303 307 306 306 301 296 293 291 291 292 293
287 287 287 288 288 287 291 288 288 289 290 290 290 290 291 292 291 291 291 291 291 294 294 296 296 297 296 296 296 298 298 299 298 298 299 300 300 301 301 300 298 300 303 305 303 300 297 293 292 291 290 291
286 287 286 288 288 287 289 288 288 289 289 289 290 290 290 291 291 290 290 290 290 291 292 295 296 296 296 295 296 297 295 298 298 297 298 299 299 300 301 297 297 298 299 303 300 299 297 294 291 292 291 292
285 286 285 287 287 287 287 288 288 288 288 289 289 290 290 290 290 290 290 290 290 290 291 293 294 295 296 296 296 296 295 296 296 297 297 298 298 299 300 299 296 296 295 300 298 298 296 294 293 292 292 292
285 285 285 286 286 287 287 288 288 288 288 289 289 290 289 289 289 290 290 290 289 290 290 291 293 293 294 294 296 296 295 295 295 295 295 296 298 299 299 297 293 294 294 298 296 297 295 293 292 291 292 291
284 284 284 285 285 286 288 287 287 287 288 288 289 289 289 289 289 290 289 289 289 290 290 290 291 292 293 294 294 295 295 296 295 294 293 294 296 296 297 296 296 297 296 298 299 298 295 293 291 290 290 290
283 284 284 285 284 285 286 286 286 287 288 288 288 288 288 288 289 289 289 289 289 289 289 290 290 291 291 292 293 294 294 295 295 294 294 293 293 294 294 295 296 295 294 294 297 297 296 294 292 290 289 289
282 283 283 283 284 285 285 286 286 286 287 287 288 288 288 288 288 288 289 289 288 288 288 288 289 289 290 291 292 293 293 293 293 294 294 295 293 294 291 291 293 294 293 294 293 293 293 294 293 290 288 288
282 282 283 283 285 284 285 285 285 286 287 287 287 287 287 288 288 288 288 288 288 287 288 287 288 289 290 290 291 292 292 292 293 294 293 294 294 292 291 292 292 292 292 292 292 293 293 293 293 291 289 287
282 282 282 282 283 283 284 284 285 285 286 287 287 287 286 287 287 288 288 288 288 287 287 287 287 288 289 289 290 291 291 291 293 292 293 294 293 293 292 291 290 290 291 292 293 292 292 293 292 291 290 288
281 281 281 281 282 283 282 284 285 285 286 285 286 286 286 286 286 287 287 287 287 287 287 287 287 288 288 289 289 290 290 291 291 291 291 291 292 293 292 292 291 290 291 293 294 293 293 292 291 291 291 289
280 280 280 280 280 281 282 283 283 284 284 285 285 285 286 286 286 286 287 287 287 286 286 287 287 287 287 288 288 288 289 290 290 291 290 290 291 291 291 292 292 292 292 292 294 294 294 293 291 291 291 291
278 278 278 278 279 280 281 281 282 283 283 284 284 285 285 286 286 286 286 286 286 286 286 286 286 286 287 288 288 288 288 288 289 289 289 289 289 289 291 292 292 292 292 291 291 291 292 293 293 292 292 290
277 276 277 278 278 277 278 278 279 279 281 282 283 284 285 285 285 286 285 285 285 285 285 286 286 286 286 287 287 287 287 288 288 288 288 289 290 289 289 290 292 292 291 289 289 292 291 291 291 292 292 291
277 277 277 277 277 276 276 276 276 277 279 281 282 283 284 284 285 285 284 284 285 285 285 284 285 285 286 286 286 287 287 287 287 288 288 288 288 290 289 288 292 293 292 287 287 288 289 291 289 289 290 290
277 277 278 278 276 276 275 277 277 277 278 279 280 282 283 284 284 284 284 284 284 284 284 284 284 285 285 286 286 286 286 286 286 287 287 287 287 287 288 289 291 291 292 287 290 290 289 287 288 288 286 288
278 278 279 278 277 276 276 275 277 277 277 277 278 278 280 283 283 282 283 283 283 283 284 284 284 285 285 285 286 285 285 285 285 286 286 286 286 286 285 286 288 292 291 290 289 283 284 286 289 286 288 287
277 278 277 276 276 276 276 276 276 275 275 276 277 277 278 278 280 280 280 281 282 283 283 284 284 284 284 285 286 286 285 285 285 286 286 286 285 285 284 285 286 289 290 290 292 287 284 284 284 285 290 289
278 276 275 274 273 272 273 272 273 273 273 274 275 276 278 278 278 279 279 280 281 282 283 283 284 284 284 284 284 284 284 285 285 285 285 285 285 285 285 284 285 285 288 290 291 291 291 289 285 286 286 287
277 274 274 273 273 273 273 272 273 274 275 275 276 277 277 277 278 278 278 278 280 281 282 283 284 283 282 282 282 282 283 283 283 284 284 285 285 284 285 285 282 283 284 287 288 289 290 290 290 289 285 282
Wind_Speed
26 25 24 24 24 24 23 24 23 23 21 23 24 25 24 23 22 21 21 20 20 20 20 19 18 15 12 12 12 13 13 16 10 6 8 8 8 8 7 6 7 11 16 14 13 14 13 12 11 10 8 4
24 23 23 23 22 23 23 23 23 23 22 22 22 22 21 22 21 22 21 20 20 19 19 18 18 18 14 11 13 14 15 15 16 13 8 8 8 10 9 8 7 12 15 15 14 14 14 13 12 10 9 5
13 22 22 22 22 22 22 21 21 22 21 21 21 20 19 19 20 20 21 20 19 19 19 19 17 19 18 19 18 18 14 14 16 18 16 10 8 9 11 11 12 14 17 16 14 14 14 14 12 11 6 5
9 14 19 20 21 20 20 20 20 20 20 20 20 19 18 17 14 14 13 20 15 19 17 17 16 17 18 18 18 17 17 16 16 15 15 15 14 4 10 12 13 14 16 16 14 13 13 14 14 7 4 5
8 11 16 13 17 18 18 18 18 17 17 16 15 15 16 14 10 8 8 10 11 14 12 16 16 16 17 17 17 17 17 17 16 15 15 14 16 17 6 11 13 14 15 16 14 13 12 13 8 5 5 4
6 7 11 11 11 11 13 14 14 12 11 12 9 13 10 8 8 7 7 8 11 8 11 12 16 15 15 16 16 17 17 17 17 17 17 17 16 15 13 7 7 8 12 15 13 10 10 6 3 5 5 5
6 8 7 8 9 8 11 11 12 10 10 9 9 9 8 7 7 7 7 8 10 9 13 12 16 15 15 14 15 13 12 14 16 17 17 17 15 14 14 4 3 6 6 9 13 12 6 3 3 3 5 5
6 7 7 6 7 7 8 9 8 9 9 8 9 9 7 6 7 7 6 9 11 9 7 8 11 14 14 13 13 14 8 11 12 14 15 15 15 9 6 4 3 6 8 9 8 6 7 5 5 5 5 5
6 6 5 6 6 7 6 6 7 8 8 8 8 8 7 7 7 7 6 6 6 7 7 6 6 7 8 7 7 11 7 6 6 7 7 7 9 7 6 4 5 2 9 7 7 7 7 6 5 5 4 4
6 6 6 6 6 6 5 6 6 6 6 6 7 7 7 7 7 7 7 7 8 8 7 7 6 6 6 7 7 7 6 6 6 5 5 6 6 6 6 4 2 4 3 9 7 6 7 7 7 5 5 5
5 5 5 5 6 6 6 5 5 5 5 6 6 6 6 7 6 5 5 5 6 6 5 6 6 5 5 6 6 6 6 6 6 6 5 4 5 5 4 5 4 1 4 4 9 7 7 7 8 7 6 5
6 5 5 5 5 5 6 6 5 5 5 5 6 6 6 6 5 6 6 4 3 3 3 4 5 5 5 4 4 5 5 5 5 5 5 4 4 5 4 4 3 3 1 4 3 8 7 8 8 8 6 7
7 6 6 5 4 5 6 5 5 5 5 5 5 6 7 7 7 6 6 7 7 4 3 2 3 4 4 5 5 4 4 5 5 5 5 5 5 3 3 2 2 2 2 1 2 3 6 7 7 7 6 6
9 9 8 7 6 5 5 4 4 5 4 4 5 5 6 6 6 6 7 7 8 8 8 6 5 4 5 5 5 5 5 4 4 4 4 4 5 5 4 2 1 1 2 3 2 3 4 5 8 7 8 7
9 9 9 9 7 6 6 5 5 4 4 4 4 5 5 5 5 6 6 6 7 7 7 5 5 4 4 4 5 4 4 4 4 3 4 4 4 4 4 4 2 2 3 3 3 4 4 5 4 6 6 6
8 9 9 9 7 7 6 6 5 4 4 4 4 4 5 5 5 5 5 6 6 6 6 6 5 4 3 3 3 4 3 4 5 4 4 3 4 4 3 4 2 2 3 4 4 4 4 4 4 5 4 6
9 9 9 9 9 8 6 6 5 5 4 4 4 4 5 5 6 6 6 5 6 6 5 5 5 5 5 4 3 3 4 4 4 5 5 5 3 4 4 4 3 2 2 5 5 6 6 3 5 4 4 5
10 10 10 10 9 9 8 6 5 5 4 4 4 4 5 5 6 6 5 6 6 6 6 5 5 5 5 4 4 3 2 3 2 2 4 5 5 4 4 5 4 3 3 4 4 5 7 6 5 4 4 5
11 11 11 11 10 10 10 8 6 5 4 4 4 4 4 5 5 6 6 6 6 6 6 6 6 6 6 5 4 3 2 2 2 2 2 3 5 5 5 4 4 3 4 4 6 5 4 7 7 6 5 4
12 12 11 10 11 11 11 9 8 5 5 4 4 4 4 4 5 5 6 6 6 6 6 6 6 6 6 6 4 3 3 2 3 2 2 3 2 4 5 4 4 4 4 5 6 5 5 6 7 9 8 6
12 12 12 11 11 11 10 9 8 6 6 6 6 6 5 5 5 5 6 6 6 6 6 6 7 6 6 6 5 4 3 3 3 2 2 2 2 2 3 4 4 5 4 5 6 5 6 6 7 8 9 7
10 10 11 10 9 11 10 10 6 7 7 8 8 6 6 5 5 6 6 6 7 6 6 6 6 7 7 6 4 4 4 4 2 3 3 3 2 2 2 2 4 5 4 4 6 6 7 6 6 8 8 8
9 9 9 8 10 10 10 9 9 9 9 9 9 7 7 6 5 5 6 6 7 7 7 6 6 5 6 5 4 4 4 4 4 3 3 4 4 2 3 3 3 5 4 5 6 7 8 7 8 7 6 6
6 6 7 9 9 9 10 10 10 9 9 9 8 9 8 7 5 5 5 6 7 7 7 6 6 6 5 5 4 4 4 4 4 5 5 4 4 4 2 3 3 3 4 5 6 7 7 7 8 9 7 7
5 6 6 6 8 9 10 11 12 11 11 10 10 11 10 8 6 5 4 6 7 7 8 7 6 5 5 4 4 4 5 5 5 4 4 3 2 3 3 2 3 3 3 4 6 5 7 7 8 9 9 10
5 4 4 6 6 7 9 10 11 11 11 11 11 12 11 9 8 6 5 6 7 7 7 7 6 5 5 4 4 5 5 5 5 5 4 3 3 3 4 3 3 2 0 2 3 5 5 4 4 5 6 9
5 4 4 4 6 7 8 8 9 10 12 12 12 10 9 9 7 6 7 7 7 7 8 7 6 6 5 4 4 5 5 4 4 4 4 3 4 4 2 3 2 4 3 4 2 4 6 8 6 3 3 6
6 5 4 4 6 8 8 11 10 10 10 11 12 11 10 6 8 10 8 8 9 8 8 8 7 5 3 4 3 3 4 3 4 3 3 3 3 3 5 3 4 5 5 5 4 3 5 6 5 9 8 9
6 4 3 4 5 6 8 8 9 9 9 9 11 12 11 11 11 11 11 11 11 10 10 9 7 5 4 3 2 1 2 3 3 3 3 3 3 4 6 7 4 3 3 6 5 7 6 4 6 9 4 2
4 3 3 4 5 7 7 9 10 11 13 13 12 11 11 12 13 13 13 13 12 12 11 10 6 3 2 1 1 1 2 3 3 3 3 3 3 6 5 6 8 7 4 4 6 8 8 6 5 5 4 6
3 3 4 4 6 7 8 10 9 9 11 13 13 12 13 13 13 13 14 15 14 12 11 10 5 4 2 1 1 2 2 2 3 4 3 3 3 5 6 5 6 8 8 6 5 7 9 10 9 7 6 5
Wind_Direction
39 37 36 37 38 40 41 39 32 37 37 38 36 31 27 26 25 29 31 34 36 36 31 25 22 18 356 328 321 320 317 319 274 262 243 198 198 192 184 199 184 206 178 180 172 161 159 153 144 138 127 123
34 35 34 36 37 37 35 34 36 32 31 36 38 34 30 27 23 22 26 25 32 36 35 29 24 20 23 6 341 318 322 319 325 300 271 249 206 194 179 166 171 197 185 183 178 163 159 158 148 144 139 133
24 32 31 32 35 34 32 31 30 31 29 32 34 33 31 29 29 22 19 20 20 26 29 29 25 24 23 25 26 14 344 326 318 325 311 268 242 206 178 176 176 181 191 192 180 166 162 157 151 147 145 146
21 26 29 29 31 30 29 28 27 25 27 28 30 29 28 29 29 24 18 18 15 15 20 22 27 27 28 26 25 19 11 359 351 326 317 328 309 221 179 174 179 195 198 193 176 171 166 158 153 153 154 150
23 21 24 23 24 26 26 25 24 22 23 22 23 26 22 22 24 20 17 14 15 9 7 14 21 26 28 30 26 22 18 8 3 352 338 343 349 339 249 175 149 162 202 182 176 174 168 163 161 149 143 159
19 12 20 18 17 19 18 17 17 17 18 15 11 21 23 21 22 16 15 13 11 9 5 6 13 24 27 29 29 25 21 11 9 6 359 359 -0 350 348 214 156 166 179 166 172 162 161 170 145 152 149 154
16 16 16 14 16 15 18 15 17 16 12 8 9 11 16 18 20 16 13 12 8 5 3 2 6 13 24 25 27 28 25 22 15 11 8 7 6 359 357 274 175 150 150 152 163 151 158 145 175 185 154 159
19 17 13 11 15 18 13 12 12 13 9 9 4 4 6 12 12 11 7 10 6 3 3 0 360 7 13 19 17 12 20 21 17 18 11 9 11 4 3 2 288 155 158 158 162 162 155 164 165 214 176 164
17 15 11 16 18 18 15 15 12 10 7 6 3 1 360 0 8 5 4 2 7 8 355 350 353 3 10 11 14 7 8 13 12 23 18 9 13 8 356 3 343 274 159 157 160 162 150 155 164 208 204 164
9 6 15 12 16 16 19 20 14 9 8 3 1 360 356 354 359 1 1 358 4 1 359 349 349 359 6 8 12 12 9 2 4 16 22 13 24 8 347 351 0 317 218 161 168 156 150 158 161 193 228 167
6 8 8 3 8 10 12 20 13 11 7 5 1 0 357 355 353 355 351 353 359 357 348 343 340 346 0 9 9 9 13 7 3 3 8 17 24 17 10 351 352 0 310 221 166 162 158 164 169 180 225 181
2 1 359 3 3 4 9 11 10 7 6 5 3 4 1 358 351 347 345 345 337 335 321 326 325 341 353 358 5 5 12 10 4 356 360 354 2 36 20 355 0 342 9 304 255 160 167 167 168 174 209 193
355 354 349 353 356 358 1 5 3 0 359 6 3 6 2 0 359 351 347 341 336 318 311 310 334 340 346 349 350 358 15 15 360 359 351 351 351 354 36 27 334 353 343 201 262 248 177 177 178 173 187 206
355 352 346 345 347 342 352 357 350 357 3 359 3 2 2 1 358 357 349 344 340 338 333 336 342 345 345 343 338 352 352 5 6 349 344 344 346 340 342 24 213 193 217 231 186 220 242 207 192 183 180 190
355 351 347 339 337 335 341 340 345 352 355 360 358 355 355 356 356 352 349 346 340 337 330 327 330 332 331 326 328 336 339 346 352 350 343 340 332 328 326 313 219 170 195 208 219 220 209 230 249 211 195 185
353 351 346 339 332 331 328 337 339 339 350 349 352 346 350 348 351 345 346 342 338 334 332 324 317 312 311 300 304 318 323 330 341 339 324 316 314 315 307 307 293 180 178 212 201 213 223 216 232 251 228 202
354 349 345 344 337 326 326 326 331 330 337 336 338 344 343 341 342 343 340 337 332 328 325 315 307 303 295 290 289 300 311 316 326 334 337 329 327 317 319 319 308 245 202 222 214 189 208 214 229 226 246 246
355 350 348 345 338 333 325 322 321 319 322 326 332 338 334 334 332 335 333 330 327 327 320 314 306 298 292 283 286 286 295 295 308 310 327 322 337 325 335 323 313 289 248 231 232 216 194 193 217 213 221 227
358 353 350 345 343 340 333 321 313 310 310 316 322 325 325 322 323 323 323 323 320 318 313 308 305 298 287 288 282 281 271 269 270 283 288 313 327 319 327 308 303 296 264 252 230 230 201 204 199 197 217 215
358 353 349 344 342 338 331 323 311 307 308 309 311 308 309 307 310 313 314 312 311 308 309 305 298 293 292 284 279 266 265 244 259 213 247 267 282 313 316 324 311 306 283 259 252 235 217 217 196 202 202 209
354 348 342 339 338 333 333 327 317 315 322 321 311 306 305 304 306 307 308 306 305 302 302 301 296 288 284 282 279 275 265 255 247 251 237 242 237 233 282 303 295 297 280 277 256 244 230 220 202 205 203 198
348 340 336 331 333 332 332 327 322 321 321 317 309 305 298 301 303 307 308 307 305 301 297 291 290 291 285 280 274 268 266 260 251 233 234 249 240 209 228 274 290 285 273 268 271 253 239 228 211 216 203 202
342 334 328 327 327 329 327 328 328 325 322 317 311 300 293 293 296 302 304 304 304 303 300 296 290 285 283 282 273 269 271 271 267 255 227 236 252 246 225 225 253 269 274 273 273 268 252 234 222 219 207 195
332 332 333 331 328 328 328 330 324 320 315 311 308 300 292 289 287 291 300 304 302 298 295 290 289 291 286 278 274 271 265 261 257 263 267 251 240 260 267 225 233 241 269 284 274 268 259 239 232 220 205 201
330 329 330 326 334 329 333 326 322 318 315 314 309 307 300 289 282 280 291 302 304 299 294 288 284 280 275 272 273 266 261 260 264 256 253 270 261 255 264 263 220 243 231 290 301 278 254 247 227 223 207 207
319 315 324 325 326 329 323 322 318 312 310 306 307 306 301 295 285 284 293 303 299 294 287 283 282 275 274 274 273 265 267 269 261 265 259 246 267 223 244 249 217 220 167 295 254 296 303 255 217 222 221 215
306 299 308 331 319 324 312 305 304 307 306 303 297 294 290 290 291 290 306 304 300 294 288 276 270 271 272 276 273 280 273 267 270 255 253 237 232 264 226 234 239 241 199 250 252 285 286 278 275 210 241 239
282 273 302 322 308 311 309 307 307 300 300 301 298 297 300 305 304 306 305 304 300 294 286 274 267 263 255 265 267 264 270 271 273 276 270 260 244 233 261 240 239 208 210 201 234 278 219 254 251 270 240 225
259 264 278 278 283 281 292 292 303 311 309 308 308 305 303 301 306 308 302 299 293 291 286 275 265 267 266 255 256 247 263 274 272 285 282 285 283 260 258 267 255 253 216 212 207 236 273 272 246 242 297 23
261 269 286 303 309 312 310 312 320 321 317 315 311 305 308 313 310 307 301 294 289 285 280 273 262 240 237 267 312 330 299 287 293 287 283 277 280 291 276 263 271 264 259 234 226 222 233 257 285 323 335 326
262 272 292 290 298 300 305 309 305 304 302 302 300 298 295 294 299 299 295 290 284 277 272 268 242 200 193 178 21 323 325 311 297 298 300 295 294 284 288 283 266 261 262 262 250 245 242 247 254 259 260 263